User: anonymous   Login
Location: Unspecified
(0.0000°N, 0.0000°E)
Time: 22:26:43
(UTC+00:00)
Language:

OBJECT N - Orbit

View from above orbital plane
View from above orbital plane
View from above satellite
View from above satellite

Ground track
Ground track

The orbit is defined by the following mean orbital elements,

1 66662U          26145.52884100 +.00000000 +00000-0 +15415-3 0 00004
2 66662  97.7487  75.3437 0016545  93.8839 266.4273 14.94080069    01
Epoch (UTC): 25 May 2026 12:41:31
Eccentricity: 0.0016545
inclination: 97.7487°
perigee height: 574 km
apogee height: 597 km
right ascension of ascending node: 75.3437°
argument of perigee: 93.8839°
revolutions per day: 14.94080069
mean anomaly at epoch: 266.4273°

The dashed part of the orbit path shows where the satellite is in the earth's shadow,  

DLR